Location: Newark
(51.2375°N, 2.9933°W)
Time: 20:45:08
(UTC+00:00)

X-37B - Visible Passes

Search period start: 18 September 2020 00:00
Search period end: 28 September 2020 00:00
Orbit: 386 x 387 km, 45.0° (Epoch: 18 September)

Date Brightness Start Highest point End Pass type
(mag) Time Alt. Az. Time Alt. Az. Time Alt. Az.
18 Sep 3.1 03:25:02 15° SE 03:25:02 15° SE 03:25:58 10° ESE visible
18 Sep 2.0 04:57:19 13° WSW 04:59:34 26° S 05:02:17 10° SE visible
19 Sep 2.0 04:01:25 26° S 04:01:25 26° S 04:03:53 10° ESE visible
20 Sep 2.1 04:37:50 20° SW 04:38:51 23° S 04:41:27 10° SE visible
21 Sep 2.9 03:42:02 17° SE 03:42:02 17° SE 03:43:10 10° SE visible
21 Sep 2.7 05:14:32 10° WSW 05:16:27 15° SSW 05:18:21 10° SSE visible
22 Sep 2.4 04:18:37 19° S 04:18:37 19° S 04:20:29 10° SSE visible
23 Sep 3.0 04:55:19 10° SSW 04:55:37 11° SSW 04:56:18 10° SSW visible
